Alexandria, LA

5:53 PM CDT on April 28, 2017 (GMT -0500)
Alexandria International

Weather History for KAEX - April, 2012

Change the Weather History Date:

Saturday, April 28, 2012

  Actual Average Record
Temperature  
Mean Temperature 74 °F 70 °F  
Max Temperature 86 °F 81 °F 93 °F (1906)
Min Temperature 62 °F 58 °F 43 °F (1904)
Degree Days  
Heating Degree Days 0 1  
Month to date heating degree days 17 66  
Since 1 July heating degree days 1512 1946  
Cooling Degree Days 9 5  
Month to date cooling degree days 133 94  
Year to date cooling degree days 286 147  
Growing Degree Days 23 (Base 50)    
Moisture  
Dew Point 63 °F    
Average Humidity 74    
Maximum Humidity 100    
Minimum Humidity 47    
Precipitation  
Precipitation 0.00 in 0.14 in 2.50 in (1914)
Month to date precipitation 4.57 4.24  
Year to date precipitation 29.14 18.97  
Snow  
Snow 0.00 in - 0.00 in ()
Month to date snowfall 0.0  
Since 1 July snowfall 0.0  
Snow Depth 0.00 in    
Sea Level Pressure  
Sea Level Pressure 29.96 in    
Wind  
Wind Speed 8 mph (SSE)    
Max Wind Speed 16 mph    
Max Gust Speed 21 mph    
Visibility 8 miles    
Events      
T = Trace of Precipitation, MM = Missing Value Source: NWS Daily Summary

Daily Weather History Graph

Daily Weather History Graph

Search for Another Location

Airport or City:

Trip Planner

Search our weather history database for the weather conditions in past years. The results will help you decide how hot, cold, wet, or windy it might be!

Date:

Astronomy

Apr. 28, 2012 Rise Set
Actual Time 6:27 AM CDT 7:47 PM CDT
Civil Twilight 6:02 AM CDT 8:13 PM CDT
Nautical Twilight 5:31 AM CDT 8:44 PM CDT
Astronomical Twilight 4:59 AM CDT 9:16 PM CDT
Moon 12:09 PM CDT 1:10 AM CDT
Length of Visible Light 14h 11m
Length of Day
13h 20m
Waxing Crescent, 43% of the Moon is Illuminated
Apr 28
Waxing Crescent
Apr 29
First Quarter
May 5
Full
May 12
Last Quarter
May 20
New

Hourly Weather History & Observations

Time (CDT) Temp. Heat Index Dew Point Humidity Pressure Visibility Wind Dir Wind Speed Gust Speed Precip Events Conditions
12:53 AM 66.0 °F - 63.0 °F 90% 29.95 in 10.0 mi SSE 3.5 mph - N/A   Clear
1:53 AM 64.4 °F - 62.6 °F 94% 29.93 in 8.0 mi SE 4.6 mph - N/A   Scattered Clouds
2:37 AM 64.4 °F - 62.6 °F 94% 29.93 in 8.0 mi SE 4.6 mph - N/A   Mostly Cloudy
2:53 AM 64.0 °F - 62.1 °F 93% 29.94 in 8.0 mi SE 5.8 mph - N/A   Mostly Cloudy
3:53 AM 63.0 °F - 62.1 °F 97% 29.94 in 7.0 mi SE 5.8 mph - N/A   Partly Cloudy
4:53 AM 63.0 °F - 62.1 °F 97% 29.94 in 5.0 mi SE 5.8 mph - N/A   Clear
5:53 AM 63.0 °F - 62.1 °F 97% 29.95 in 3.0 mi SE 5.8 mph - N/A   Mostly Cloudy
6:05 AM 62.6 °F - 62.6 °F 100% 29.94 in 4.0 mi SE 5.8 mph - N/A   Scattered Clouds
6:53 AM 64.0 °F - 63.0 °F 96% 29.97 in 3.0 mi SE 6.9 mph - N/A   Mostly Cloudy
6:57 AM 64.4 °F - 62.6 °F 94% 29.96 in 2.5 mi SE 6.9 mph - N/A   Mostly Cloudy
7:06 AM 64.4 °F - 62.6 °F 94% 29.96 in 3.0 mi SE 6.9 mph - N/A   Scattered Clouds
7:53 AM 66.0 °F - 64.9 °F 96% 29.98 in 3.0 mi SE 8.1 mph - N/A   Clear
8:53 AM 71.1 °F - 66.0 °F 84% 29.98 in 7.0 mi SSE 5.8 mph - N/A   Clear
9:53 AM 75.0 °F - 64.9 °F 71% 29.98 in 10.0 mi SSW 11.5 mph - 0.01 in   Mostly Cloudy
10:27 AM 78.8 °F - 64.4 °F 61% 29.98 in 10.0 mi South 9.2 mph 20.7 mph N/A   Mostly Cloudy
10:42 AM 78.8 °F - 64.4 °F 61% 29.98 in 10.0 mi South 10.4 mph - N/A   Mostly Cloudy
10:53 AM 80.1 °F 81.7 °F 64.0 °F 58% 29.99 in 10.0 mi South 11.5 mph 18.4 mph N/A   Mostly Cloudy
11:53 AM 81.0 °F 82.2 °F 63.0 °F 54% 29.99 in 10.0 mi SSW 11.5 mph - N/A   Mostly Cloudy
12:00 PM 78.8 °F - 62.6 °F 57% 29.98 in 10.0 mi South 10.4 mph - N/A   Mostly Cloudy
12:53 PM 81.0 °F 82.2 °F 63.0 °F 54% 29.98 in 10.0 mi SSE 8.1 mph - N/A   Mostly Cloudy
1:53 PM 82.0 °F 83.0 °F 62.1 °F 51% 29.97 in 10.0 mi South 9.2 mph - N/A   Mostly Cloudy
2:53 PM 84.0 °F 84.9 °F 63.0 °F 49% 29.95 in 10.0 mi SSE 10.4 mph - N/A   Scattered Clouds
3:53 PM 84.0 °F 84.5 °F 62.1 °F 47% 29.93 in 10.0 mi South 9.2 mph - N/A   Partly Cloudy
4:53 PM 82.0 °F 82.7 °F 61.0 °F 49% 29.93 in 10.0 mi South 11.5 mph - N/A   Partly Cloudy
5:53 PM 82.0 °F 83.0 °F 62.1 °F 51% 29.93 in 10.0 mi South 10.4 mph 17.3 mph N/A   Clear
6:53 PM 79.0 °F - 61.0 °F 54% 29.93 in 10.0 mi South 9.2 mph - N/A   Clear
7:43 PM 75.2 °F - 60.8 °F 61% 29.92 in 10.0 mi South 8.1 mph - N/A   Partly Cloudy
7:53 PM 75.9 °F - 61.0 °F 60% 29.94 in 10.0 mi South 6.9 mph - N/A   Clear
8:53 PM 73.0 °F - 62.1 °F 68% 29.95 in 10.0 mi SSE 5.8 mph - N/A   Clear
9:53 PM 71.1 °F - 62.1 °F 73% 29.98 in 10.0 mi South 5.8 mph - N/A   Clear
10:53 PM 70.0 °F - 63.0 °F 78% 30.00 in 10.0 mi South 4.6 mph - N/A   Clear
11:53 PM 68.0 °F - 63.0 °F 84% 30.00 in 10.0 mi SE 3.5 mph - N/A   Clear